Back to catalog

SL-14 DEB

AlivePO
NORAD 19143·DEBRIS·🇷🇺 Russia

Launched Oct 26, 1978 from Plesetsk Cosmodrome

Loading…

Next Passes (next 24 hours)

TLE

FreshSource: Space-Track

Epoch: Sep 14, 2026, 14:50 UTC

1 19143U 78100P   26257.61808433  .00002061  00000-0  83182-2 0  9992
2 19143  81.6952   7.5113 0324716 213.3087 158.5091 12.70492146769147

Track SL-14 DEB in real time with AllMySat

Download on the App Store